Location: Novokuznetsk
(53.7500°N, 87.1000°E)
Time: 22:47:01
(UTC+06:00)

ISS - Pass Details

Date: 23 May 2021
Orbit: 417 x 422 km, 51.6° (Epoch: 16 June)

Event Time Altitude Azimuth Distance (km) Brightness Sun altitude
Rises 21:31:30 0° 270° (W) 2,366 0.6 -8.2°
Reaches altitude 10° 21:33:37 10° 266° (W) 1,502 -0.5 -8.4°
Maximum altitude 21:36:56 57° 187° (S) 498 -3.6 -8.7°
Drops below altitude 10° 21:40:15 10° 108° (ESE) 1,504 -1.4 -9.0°
Enters shadow 21:40:41 - 107° (ESE) 1,676 -1.2 -9.0°
